Charlottesville, VA

8:00 AM EDT on October 15, 2019 (GMT -0400)
Charlottesville-Albemarle

Weather History for KCHO - August, 2019

Change the Weather History Date:

Friday, August 9, 2019

  Actual Average Record
Temperature  
Mean Temperature 81 °F 75 °F  
Max Temperature 91 °F 85 °F 105 °F (1930)
Min Temperature 70 °F 64 °F 50 °F (2002)
Degree Days  
Heating Degree Days 0 0  
Month to date heating degree days 0 0  
Since 1 June heating degree days 0 12  
Since 1 July heating degree days 0 1  
Cooling Degree Days 16 10  
Month to date cooling degree days 128 90  
Year to date cooling degree days 1196 720  
Since 1 June cooling degree days 910 634  
Growing Degree Days 32 (Base 50)    
Moisture  
Dew Point 61 °F    
Average Humidity 55    
Maximum Humidity 73    
Minimum Humidity 36    
Precipitation  
Precipitation T in 0.14 in 1.02 in (2007)
Month to date precipitation 0.52 1.27  
Year to date precipitation 25.82 25.79  
Sea Level Pressure  
Sea Level Pressure 29.82 in    
Wind  
Wind Speed 4 mph (NW)    
Max Wind Speed 12 mph    
Max Gust Speed 17 mph    
Visibility 10 miles    
Events Rain    
T = Trace of Precipitation, MM = Missing Value Source: NWS Daily Summary

Daily Weather History Graph

Daily Weather History Graph

Search for Another Location

Airport or City:

Astronomy

Aug. 09, 2019 Rise Set
Actual Time 6:23 AM EDT 8:14 PM EDT
Civil Twilight 5:54 AM EDT 8:43 PM EDT
Nautical Twilight 5:19 AM EDT 9:17 PM EDT
Astronomical Twilight 4:42 AM EDT 9:55 PM EDT
Moon 3:52 PM EDT (8/9) 1:19 AM EDT (8/9)
Length of Visible Light 14h 48m
Length of Day
13h 51m
Waxing Gibbous, 70% of the Moon is Illuminated
Aug 9
Waxing Gibbous
Aug 15
Full
Aug 23
Last Quarter
Aug 30
New
Sep 5
First Quarter

Hourly Weather History & Observations

Time (EDT) Temp. Heat Index Dew Point Humidity Pressure Visibility Wind Dir Wind Speed Gust Speed Precip Events Conditions
12:53 AM 73.9 °F - 64.9 °F 73% 29.82 in 10.0 mi Calm Calm - N/A   Clear
1:53 AM 75.0 °F - 64.0 °F 69% 29.81 in 10.0 mi Calm Calm - N/A   Clear
2:53 AM 78.1 °F - 62.1 °F 58% 29.81 in 10.0 mi NW 4.6 mph - N/A   Clear
3:53 AM 75.9 °F - 62.1 °F 62% 29.79 in 10.0 mi Calm Calm - N/A   Clear
4:53 AM 77.0 °F - 60.1 °F 56% 29.79 in 10.0 mi Calm Calm - 0.00 in Rain Light Rain
5:53 AM 75.9 °F - 61.0 °F 60% 29.82 in 10.0 mi Variable 4.6 mph - 0.00 in Rain Light Rain
6:53 AM 75.0 °F - 61.0 °F 62% 29.82 in 10.0 mi Calm Calm - 0.00 in Rain Light Rain
7:53 AM 77.0 °F - 62.1 °F 60% 29.83 in 10.0 mi Variable 6.9 mph - 0.00 in   Scattered Clouds
8:53 AM 80.1 °F 81.5 °F 63.0 °F 56% 29.83 in 10.0 mi Variable 4.6 mph - N/A   Clear
9:53 AM 82.0 °F 83.4 °F 64.0 °F 54% 29.84 in 10.0 mi WNW 5.8 mph - N/A   Clear
10:53 AM 86.0 °F 87.6 °F 64.9 °F 49% 29.84 in 10.0 mi Variable 6.9 mph - N/A   Clear
11:53 AM 88.0 °F 89.3 °F 64.0 °F 45% 29.84 in 10.0 mi Variable 4.6 mph - N/A   Clear
12:53 PM 88.0 °F 89.6 °F 64.9 °F 46% 29.83 in 10.0 mi WNW 6.9 mph - N/A   Scattered Clouds
1:53 PM 87.1 °F 88.9 °F 64.9 °F 48% 29.83 in 10.0 mi Variable 4.6 mph - N/A   Mostly Cloudy
2:53 PM 89.1 °F 91.3 °F 66.0 °F 46% 29.80 in 10.0 mi Variable 6.9 mph - 0.00 in   Mostly Cloudy
3:53 PM 90.0 °F 91.3 °F 64.0 °F 42% 29.78 in 10.0 mi Variable 4.6 mph - 0.00 in   Scattered Clouds
4:53 PM 90.0 °F 90.3 °F 62.1 °F 39% 29.78 in 10.0 mi NNW 5.8 mph - N/A   Mostly Cloudy
5:53 PM 90.0 °F 89.1 °F 59.0 °F 35% 29.78 in 10.0 mi WNW 5.8 mph - N/A   Partly Cloudy
6:53 PM 88.0 °F 86.9 °F 57.9 °F 36% 29.79 in 10.0 mi Variable 3.5 mph - N/A   Clear
7:53 PM 84.0 °F 83.3 °F 57.0 °F 40% 29.81 in 10.0 mi NW 5.8 mph - N/A   Clear
8:53 PM 80.1 °F 80.4 °F 57.0 °F 45% 29.83 in 10.0 mi NW 4.6 mph - N/A   Clear
9:53 PM 79.0 °F - 55.0 °F 44% 29.85 in 10.0 mi NNE 4.6 mph - N/A   Clear
10:53 PM 73.0 °F - 57.0 °F 57% 29.87 in 10.0 mi North 3.5 mph - N/A   Clear
11:53 PM 71.1 °F - 55.9 °F 59% 29.88 in 10.0 mi NW 3.5 mph - N/A   Clear